Lamoni, IA

6:56 PM CDT on August 22, 2017 (GMT -0500)
Lamoni Municipal

Weather History for KLWD - June, 2013

Change the Weather History Date:

Monday, June 10, 2013

  Actual Average Record
Temperature  
Mean Temperature 70 °F 70 °F  
Max Temperature 78 °F 79 °F 96 °F (1977)
Min Temperature 61 °F 60 °F 44 °F (1966)
Degree Days  
Heating Degree Days 0 1  
Month to date heating degree days 32 13  
Since 1 June heating degree days 32 13  
Since 1 July heating degree days 6092 6073  
Cooling Degree Days 5 5  
Month to date cooling degree days 6 43  
Year to date cooling degree days 82 97  
Since 1 June cooling degree days 6 43  
Growing Degree Days 19 (Base 50)    
Moisture  
Dew Point 60 °F    
Average Humidity 76    
Maximum Humidity 93    
Minimum Humidity 58    
Precipitation  
Precipitation 0.00 in 0.18 in 1.36 in (2005)
Month to date precipitation 1.37 1.99  
Sea Level Pressure  
Sea Level Pressure 29.85 in    
Wind  
Wind Speed 5 mph (WNW)    
Max Wind Speed 7 mph    
Max Gust Speed 9 mph    
Visibility 10 miles    
Events      
T = Trace of Precipitation, MM = Missing Value Source: NWS Daily Summary

Daily Weather History Graph

Daily Weather History Graph

Search for Another Location

Airport or City:

Trip Planner

Search our weather history database for the weather conditions in past years. The results will help you decide how hot, cold, wet, or windy it might be!

Date:

Astronomy

Jun. 10, 2013 Rise Set
Actual Time 5:44 AM CDT 8:46 PM CDT
Civil Twilight 5:11 AM CDT 9:19 PM CDT
Nautical Twilight 4:29 AM CDT 10:01 PM CDT
Astronomical Twilight 3:39 AM CDT 10:50 PM CDT
Moon 7:34 AM CDT (6/10) 10:12 PM CDT (6/10)
Length of Visible Light 16h 08m
Length of Day
15h 01m
Waxing Crescent, 4% of the Moon is Illuminated
Jun 10
Waxing Crescent
Jun 16
First Quarter
Jun 23
Full
Jun 29
Last Quarter
Jul 8
New

Hourly Weather History & Observations

Time (CDT) Temp. Dew Point Humidity Pressure Visibility Wind Dir Wind Speed Gust Speed Precip Events Conditions
12:33 AM 62.6 °F 57.2 °F 82% 29.79 in 10.0 mi WNW 8.1 mph - N/A   Overcast
12:53 AM 62.1 °F 57.9 °F 86% 29.78 in 10.0 mi West 8.1 mph - N/A   Overcast
1:38 AM 60.8 °F 57.2 °F 88% 29.79 in 10.0 mi West 8.1 mph - N/A   Overcast
1:53 AM 62.1 °F 57.9 °F 86% 29.78 in 10.0 mi WNW 6.9 mph - N/A   Overcast
2:17 AM 60.8 °F 57.2 °F 88% 29.78 in 10.0 mi West 6.9 mph - N/A   Overcast
2:49 AM 62.6 °F 57.2 °F 82% 29.78 in 10.0 mi WNW 6.9 mph - N/A   Overcast
2:53 AM 62.1 °F 59.0 °F 90% 29.78 in 10.0 mi West 9.2 mph - N/A   Overcast
3:53 AM 62.1 °F 59.0 °F 90% 29.79 in 10.0 mi NW 8.1 mph - N/A   Overcast
4:09 AM 62.6 °F 59.0 °F 88% 29.80 in 10.0 mi NW 6.9 mph - N/A   Overcast
4:53 AM 62.1 °F 60.1 °F 93% 29.81 in 10.0 mi NW 5.8 mph - N/A   Overcast
5:53 AM 62.1 °F 59.0 °F 90% 29.82 in 10.0 mi NNW 6.9 mph - N/A   Overcast
6:01 AM 62.6 °F 59.0 °F 88% 29.83 in 10.0 mi North 5.8 mph - N/A   Overcast
6:53 AM 61.0 °F 57.9 °F 90% 29.83 in 10.0 mi NNW 4.6 mph - N/A   Mostly Cloudy
7:00 AM 62.6 °F 57.2 °F 82% 29.84 in 10.0 mi NNW 5.8 mph - N/A   Mostly Cloudy
7:34 AM 62.6 °F 57.2 °F 82% 29.85 in 10.0 mi NW 8.1 mph - N/A   Overcast
7:53 AM 62.1 °F 57.9 °F 86% 29.85 in 10.0 mi NNW 5.8 mph - N/A   Overcast
8:53 AM 64.0 °F 59.0 °F 84% 29.87 in 10.0 mi WNW 8.1 mph - N/A   Overcast
9:12 AM 64.4 °F 59.0 °F 83% 29.89 in 10.0 mi NW 4.6 mph - N/A   Overcast
9:53 AM 66.0 °F 59.0 °F 78% 29.88 in 10.0 mi West 6.9 mph - N/A   Overcast
10:53 AM 68.0 °F 60.1 °F 76% 29.90 in 10.0 mi WNW 5.8 mph - N/A   Overcast
11:53 AM 69.1 °F 60.1 °F 73% 29.90 in - WNW 8.1 mph - N/A   Overcast
12:41 PM 71.6 °F 60.8 °F 69% 29.90 in - Calm Calm - N/A   Scattered Clouds
12:53 PM 72.0 °F 62.1 °F 71% 29.89 in 10.0 mi North - - N/A   Scattered Clouds
1:06 PM 71.6 °F 62.6 °F 73% 29.91 in 10.0 mi NW 3.5 mph - N/A   Mostly Cloudy
1:31 PM 71.6 °F 60.8 °F 69% 29.89 in 10.0 mi Calm Calm - N/A   Scattered Clouds
2:44 PM 75.2 °F 62.6 °F 65% 29.89 in 10.0 mi Variable 3.5 mph - N/A   Mostly Cloudy
2:53 PM 75.9 °F 64.0 °F 67% 29.88 in 10.0 mi West 6.9 mph - N/A   Mostly Cloudy
3:05 PM 75.2 °F 62.6 °F 65% 29.90 in 10.0 mi Variable 3.5 mph - N/A   Partly Cloudy
3:53 PM 73.9 °F 61.0 °F 64% 29.87 in 10.0 mi Calm Calm - N/A   Mostly Cloudy
4:41 PM 77.0 °F 62.6 °F 61% 29.88 in 10.0 mi Calm Calm - N/A   Scattered Clouds
4:53 PM 78.1 °F 63.0 °F 60% 29.86 in 10.0 mi West 3.5 mph - N/A   Partly Cloudy
5:53 PM 75.9 °F 63.0 °F 64% 29.86 in 10.0 mi Calm Calm - N/A   Clear
6:53 PM 77.0 °F 63.0 °F 62% 29.84 in 10.0 mi South 4.6 mph - N/A   Clear
7:53 PM 73.9 °F 64.0 °F 71% 29.83 in 10.0 mi Calm Calm - N/A   Clear
8:53 PM 71.1 °F 63.0 °F 75% 29.82 in 10.0 mi SE 4.6 mph - N/A   Clear
9:53 PM 69.1 °F 62.1 °F 78% 29.84 in 10.0 mi SE 4.6 mph - N/A   Clear
10:53 PM 68.0 °F 62.1 °F 81% 29.88 in 10.0 mi South 4.6 mph - N/A   Clear
11:53 PM 66.9 °F 62.1 °F 84% 29.87 in 10.0 mi SE 4.6 mph - N/A   Clear